Regional Weather Roundup
Issued by NWS Little Rock, AR

Home | Current Version | Previous Version | Text Only | Print | Product List | Glossary Off
Versions: 1 2 3 4 5 6 7 8 9 10 11 12 13 14 15 16 17 18 19 20 21 22 23 24 25 26 27 28 29 30 31 32 33 34 35 36 37 38 39 40 41 42 43 44 45 46 47 48 49 50

000
ASUS44 KLZK 301805
RWRLZK

WEATHER ROUNDUP FOR ARKANSAS
NATIONAL WEATHER SERVICE LITTLE ROCK AR
100 PM CDT WED JUL 30 2014

NOTE: "FAIR" INDICATES FEW OR NO CLOUDS BELOW 12,000 FEET WITH NO
SIGNIFICANT WEATHER AND/OR OBSTRUCTIONS TO VISIBILITY.

ARZ001-003-010-029-301900-
NORTHWEST ARKANSAS

CITY           SKY/WX    TMP DP  RH WIND       PRES   REMARKS
FAYETTEVILLE   RAIN      69  68  96 SW7       30.13S FOG
6HR MIN TEMP:  64; 6HR MAX TEMP:  71; 6HR PCP:  0.10;

FORT SMITH     LGT RAIN  72  67  84 SW8       30.11F
6HR MIN TEMP:  72; 6HR MAX TEMP:  73; 6HR PCP:  0.05;

HARRISON       HVY RAIN  66  66 100 NE5       30.12S VSB 3/4
6HR MIN TEMP:  66; 6HR MAX TEMP:  70; 6HR PCP:  0.37;

BENTONVILLE    CLOUDY    72  66  83 W8        30.13S
6HR MIN TEMP:  70; 6HR MAX TEMP:  73; 6HR PCP:  0.02;

ROGERS         CLOUDY    71  68  90 SW8       30.13S
6HR MIN TEMP:  68; 6HR MAX TEMP:  73; 6HR PCP:  0.06;

SILOAM SPGS    PTSUNNY   70  63  78 SW12      30.13S
6HR MIN TEMP:  66; 6HR MAX TEMP:  72; 6HR PCP:  0.02;

HIGHFILL       LGT RAIN  71  68  90 SW8       30.12S
6HR MIN TEMP:  67; 6HR MAX TEMP:  71; 6HR PCP:  0.13;

SPRINGDALE     PTSUNNY   72  68  88 SW12G17   30.14S
$$

ARZ004-005-016-301900-
NORTH CENTRAL ARKANSAS

CITY           SKY/WX    TMP DP  RH WIND       PRES   REMARKS
BATESVILLE     PTSUNNY   79  61  53 SW9       30.11F
6HR MIN TEMP:  68; 6HR MAX TEMP:  79;

FLIPPIN        CLOUDY    70  66  88 CALM      30.12S
6HR MIN TEMP:  64; 6HR MAX TEMP:  70; 6HR PCP:  0.07;

MTN HOME       LGT RAIN  69  67  93 S3        30.11S FOG
6HR MIN TEMP:  64; 6HR MAX TEMP:  70; 6HR PCP: TRACE;

$$

ARZ040-041-301900-
WEST CENTRAL ARKANSAS

CITY           SKY/WX    TMP DP  RH WIND       PRES   REMARKS
MENA           CLOUDY    72  68  88 CALM      30.14F
MOUNT IDA      CLOUDY    73  63  70 VRB3      30.12S
6HR MIN TEMP:  68; 6HR MAX TEMP:  73; 6HR PCP: TRACE;

$$

ARZ009-017-025-026-028-301900-
NORTHEAST ARKANSAS

CITY           SKY/WX    TMP DP  RH WIND       PRES   REMARKS
CORNING          N/A     81  61  50 S10       30.10F
JONESBORO      FAIR      81  62  52 S8        30.10F
6HR MIN TEMP:  61; 6HR MAX TEMP:  81;

NEWPORT        CLOUDY    82  60  47 S8        30.11F
6HR MIN TEMP:  66; 6HR MAX TEMP:  82;

WALNUT RIDGE   FAIR      79  57  47 S10       30.09F
6HR MIN TEMP:  64; 6HR MAX TEMP:  81;

BLYTHEVILLE    FAIR      81  56  42 S9        30.10F
6HR MIN TEMP:  62; 6HR MAX TEMP:  81;

NW BLYTHEVILLE MOSUNNY   84  61  45 S8        30.10F
$$

ARZ022-023-033-042-044-301900-
CENTRAL ARKANSAS

CITY           SKY/WX    TMP DP  RH WIND       PRES   REMARKS
LITTLE ROCK    CLOUDY    80  58  46 S8        30.11F
6HR MIN TEMP:  67; 6HR MAX TEMP:  82;

N LITTLE ROCK  CLOUDY    80  62  55 SW7       30.11F
6HR MIN TEMP:  67; 6HR MAX TEMP:  80;

JACKSONVILLE   PTSUNNY   81  61  50 VRB3      30.11S
6HR MIN TEMP:  64; 6HR MAX TEMP:  81;

SEARCY         FAIR      78  64  61 W6        30.12S
6HR MIN TEMP:  65; 6HR MAX TEMP:  80;

HOT SPRINGS    CLOUDY    72  64  76 VRB3      30.13S
6HR MIN TEMP:  69; 6HR MAX TEMP:  72; 6HR PCP: TRACE;

RUSSELLVILLE   CLOUDY    74  63  68 VRB6      30.12F
6HR MIN TEMP:  69; 6HR MAX TEMP:  78;

CLINTON        FAIR      73  66  78 S3        30.11F
$$

ARZ036-301900-
EAST ARKANSAS

CITY           SKY/WX    TMP DP  RH WIND       PRES   REMARKS
WEST MEMPHIS   FAIR      80  58  46 VRB3      30.10F
6HR MIN TEMP:  61; 6HR MAX TEMP:  81;

$$

ARZ050-053-066-070-073-301900-
SOUTHWEST ARKANSAS

CITY           SKY/WX    TMP DP  RH WIND       PRES   REMARKS
ARKADELPHIA    FAIR      76  66  71 W5        30.12S
6HR MIN TEMP:  69; 6HR MAX TEMP:  78;

CAMDEN         FAIR      79  59  50 SW3       30.10F
TEXARKANA      PTSUNNY   78  63  59 SW8       30.11F
6HR MIN TEMP:  71; 6HR MAX TEMP:  79;

EL DORADO      FAIR      79  62  56 S6        30.11F
6HR MIN TEMP:  64; 6HR MAX TEMP:  79;

DE QUEEN       PTSUNNY   74  67  78 E3        30.10F
6HR MIN TEMP:  70; 6HR MAX TEMP:  74; 6HR PCP: TRACE;

$$

ARZ056-057-069-301900-
SOUTHEAST ARKANSAS

CITY           SKY/WX    TMP DP  RH WIND       PRES   REMARKS
PINE BLUFF     FAIR      78  61  55 SW6       30.11F
6HR MIN TEMP:  63; 6HR MAX TEMP:  79;

STUTTGART      PTSUNNY   82  61  47 SW8       30.12S
6HR MIN TEMP:  68; 6HR MAX TEMP:  82;

MONTICELLO     FAIR      80  59  48 S6        30.11F
6HR MIN TEMP:  64; 6HR MAX TEMP:  81;


$$





USA.gov is the U.S. government's official web portal to all federal, state and local government web resources and services.